Погода в Стамбуле

Турция     41°00′31″N   28°58′02″E
темп.,
°C
ветер,
м/с
пор.,
м/с
влажн.,
%
обл.,
%
осадки,
мм/ч
давл.,
гПа
погр.,
м
23 апреля, пт
пт2300:00+13вюв2254100 0.0 102122
03:00+13вюв2258100 0.0 102019
06:00+13юв2265100 0.0 102019
09:00+15ююв225627 0.0 1020171
12:00+17юз4549100 0.0 1020501
15:00+18зюз5845100 0.0 1020797
18:00+16юз4861100 0.0 1019577
21:00+15юз2575100 0.0 1021185
24 апреля, сб
сб2400:00+14ссз1279100 0.0 102197
03:00+14ссв3575100 0.0 1021199
06:00+13ссв367491 0.0 1021271
09:00+15св576847 0.0 1021370
12:00+16св6864100 0.0 1021542
15:00+14св7971100 0.2 1020520
18:00+12св71184100 0.6 1020522
21:00+11всв71387100 0.7 1020601
25 апреля, вс
вс2500:00+11всв51284100 0.0 1019573
03:00+10св61191100 2.6 1018589
06:00+9св61290100 1.8 1017585
09:00+10св71288100 2.1 1017584
12:00+11ссв51085100 0.1 1017690
15:00+11ссв5989100 0.5 1016703
18:00+11св5987100 0.1 1016792
21:00+10св61087100 0.2 1016755
26 апреля, пн
пн2600:00+10ссв4989100 0.1 1016688
03:00+10ссв4889100 0.2 1016674
06:00+10ссв488525 0.1 1016643
09:00+11ссв57680 0.1 1018804
12:00+14св45512 0.0 1019807
15:00+16св45430 0.0 1018881
18:00+15всв56443 0.0 1018622
21:00+12всв47635 0.0 1018286
27 апреля, вт
вт2700:00+10всв385745 0.0 1018283
03:00+10в26593 0.0 1016173
06:00+9в226686 0.0 1015109
09:00+12ююв23615 0.0 1015293
12:00+14ююз235473 0.0 1015420
15:00+17зюз344485 0.0 1014548
18:00+16ююз1143100 0.0 1013338
21:00+16св2249100 0.0 101350